TimeCDT,TemperatureF,Dew PointF,Humidity,Sea Level PressureIn,VisibilityMPH,Wind Direction,Wind SpeedMPH,Gust SpeedMPH,PrecipitationIn,Events,Conditions,WindDirDegrees,DateUTC
12:53 AM,61.0,57.9,90,30.14,10.0,Calm,Calm,-,N/A,,Clear,0,2012-10-11 05:53:00
1:53 AM,60.1,57.0,90,30.15,10.0,Calm,Calm,-,N/A,,Clear,0,2012-10-11 06:53:00
2:53 AM,60.1,57.0,90,30.15,10.0,Calm,Calm,-,N/A,,Clear,0,2012-10-11 07:53:00
3:53 AM,57.9,55.0,90,30.14,10.0,Calm,Calm,-,N/A,,Clear,0,2012-10-11 08:53:00
4:53 AM,57.0,55.0,93,30.16,10.0,Calm,Calm,-,N/A,,Clear,0,2012-10-11 09:53:00
6:53 AM,55.0,53.1,93,30.20,9.0,Calm,Calm,-,N/A,,Clear,0,2012-10-11 11:53:00
7:53 AM,61.0,57.0,87,30.22,8.0,Calm,Calm,-,N/A,,Clear,0,2012-10-11 12:53:00
8:53 AM,66.9,61.0,81,30.23,10.0,Variable,3.5,-,N/A,,Clear,0,2012-10-11 13:53:00
9:53 AM,72.0,60.1,66,30.25,10.0,East,4.6,-,N/A,,Clear,80,2012-10-11 14:53:00
10:53 AM,77.0,59.0,54,30.24,10.0,East,5.8,-,N/A,,Clear,90,2012-10-11 15:53:00
11:53 AM,78.1,60.1,54,30.23,10.0,NE,6.9,-,N/A,,Clear,40,2012-10-11 16:53:00
12:53 PM,80.1,59.0,48,30.21,10.0,NNW,6.9,-,N/A,,Clear,340,2012-10-11 17:53:00
1:53 PM,81.0,57.9,45,30.19,10.0,ENE,8.1,-,N/A,,Clear,70,2012-10-11 18:53:00
2:53 PM,82.9,57.9,42,30.18,10.0,ENE,4.6,-,N/A,,Clear,60,2012-10-11 19:53:00
3:53 PM,82.0,55.9,41,30.17,10.0,ESE,4.6,-,N/A,,Clear,110,2012-10-11 20:53:00
5:53 PM,79.0,57.9,48,30.17,10.0,Calm,Calm,-,N/A,,Clear,0,2012-10-11 22:53:00
6:53 PM,71.1,61.0,70,30.18,10.0,Calm,Calm,-,N/A,,Clear,0,2012-10-11 23:53:00
7:53 PM,66.0,61.0,84,30.19,10.0,Calm,Calm,-,N/A,,Clear,0,2012-10-12 00:53:00
8:53 PM,66.0,61.0,84,30.21,10.0,Calm,Calm,-,N/A,,Clear,0,2012-10-12 01:53:00
9:53 PM,64.9,61.0,87,30.22,10.0,Calm,Calm,-,N/A,,Clear,0,2012-10-12 02:53:00
10:53 PM,62.1,59.0,90,30.21,10.0,Calm,Calm,-,N/A,,Clear,0,2012-10-12 03:53:00
11:53 PM,62.1,59.0,90,30.21,9.0,Calm,Calm,-,N/A,,Clear,0,2012-10-12 04:53:00